Location: Ariel
(45.9570°N, 122.5700°W)
Time: 07:17:35
(UTC-07:00)

A-11 Canister half - Pass Details

Date: 29 August 2019
Orbit: 1513 x 1686 km, 47.2° (Epoch: 18 September)

Event Time Altitude Azimuth Distance (km) Brightness Sun altitude
Rises 00:53:23 0° 291° (WNW) 4,798 11.9 -34.5°
Reaches altitude 10° 00:57:09 10° 279° (W) 3,838 11.2 -34.5°
Enters shadow 01:01:44 22° 253° (WSW) 3,026 10.4 -34.6°
